Wind_Speed
81 79 77 75 73 71 70 68 66 65 64 64 63 62 62 62 63 64 64 65 66 67 68 69 69 70 71 71 72 72 72 73 74 74 75 75 75 74 74 73 72 72 73 75 78 79 78 76 74 73 72 72 71 71 71 71 72 72 73 73 74 75 77 79 81 84 86 89 90 90 89 89 90 92 94 95 96 96 96 96 94 90 85 79 73 68
79 77 75 72 70 69 68 66 64 63 63 63 63 63 62 63 64 64 65 66 67 67 68 69 70 70 71 71 71 72 72 73 73 74 74 75 75 75 74 74 73 72 72 73 75 77 78 78 76 74 73 72 72 71 71 71 71 71 71 71 72 72 73 75 76 78 81 84 87 88 89 89 89 90 91 93 94 95 95 95 95 93 90 86 81 75
76 74 72 70 68 66 65 64 63 62 62 63 63 63 63 64 65 65 65 66 66 67 68 68 69 70 70 71 71 71 71 72 73 73 74 74 74 74 74 73 73 72 71 71 73 75 77 78 77 75 74 73 72 72 71 71 71 70 70 70 70 70 71 71 72 74 76 78 81 84 86 88 88 88 89 90 92 93 93 94 93 93 92 91 88 82
73 71 69 68 66 65 64 63 62 61 62 63 63 64 64 65 65 65 66 66 66 67 67 68 68 69 69 70 70 70 71 71 72 72 72 72 72 72 72 71 71 71 70 70 71 72 75 77 78 77 75 73 73 72 71 71 70 70 69 69 68 68 68 69 69 70 72 73 76 78 81 84 86 87 87 88 89 90 91 91 91 90 90 91 91 88
71 68 67 66 65 64 63 62 61 61 61 62 63 64 64 65 65 65 66 66 66 66 66 66 67 67 68 68 69 69 70 70 70 70 69 69 68 68 68 68 68 68 68 68 69 70 73 76 77 77 76 74 73 72 71 71 70 70 69 68 67 67 66 66 67 67 68 69 71 73 76 79 81 83 85 86 87 88 89 89 88 87 87 88 90 90
69 67 66 65 64 64 63 62 61 61 62 62 63 63 64 64 65 65 65 65 65 65 65 65 65 65 66 66 67 67 68 68 67 67 66 65 64 64 64 64 64 64 65 66 67 68 70 73 76 77 77 75 74 73 72 71 70 70 69 68 67 66 65 65 65 65 66 67 68 69 71 73 76 79 81 83 85 86 87 87 86 85 85 85 86 87
67 66 65 64 64 64 63 62 62 62 62 62 63 63 63 64 64 64 64 64 63 63 63 63 63 63 64 64 65 65 65 65 64 63 62 61 60 60 59 59 60 60 61 62 64 65 68 71 74 76 77 76 75 73 72 71 70 70 69 68 67 65 65 64 64 64 64 64 64 65 66 68 70 73 76 78 81 83 84 84 84 83 83 83 83 83
66 66 65 64 64 63 63 62 62 62 62 63 63 63 63 63 63 63 62 62 62 61 61 62 62 62 62 62 62 62 62 61 60 59 58 57 56 55 55 55 55 56 57 59 60 62 65 68 72 75 76 76 75 74 72 72 71 70 69 68 67 66 65 64 63 63 62 61 61 61 62 63 65 67 70 73 76 78 80 81 82 82 81 81 81 81
65 65 64 64 63 63 63 62 62 61 61 62 62 62 63 63 63 62 61 60 59 59 59 60 60 60 59 59 58 58 58 57 57 56 54 53 52 51 50 50 51 52 53 55 57 59 62 65 69 72 75 76 76 74 73 72 71 71 70 69 68 67 66 65 63 62 61 60 59 58 58 59 60 61 64 67 70 73 75 78 79 80 80 79 79 78
65 64 64 63 63 62 62 62 62 61 61 61 61 61 61 61 62 61 60 59 58 57 57 57 58 58 57 56 55 54 54 54 53 52 51 50 48 47 47 47 47 48 49 51 53 56 58 62 66 70 73 75 76 75 74 73 72 71 71 70 69 68 67 66 64 62 60 59 57 56 56 56 56 57 59 61 64 67 70 73 75 76 77 77 77 76
65 64 64 63 63 62 62 61 61 61 60 60 60 60 59 59 59 60 59 58 56 55 55 55 55 55 54 53 52 51 50 50 49 48 47 46 45 45 44 44 44 45 46 47 49 52 55 58 62 66 70 73 75 75 74 74 73 72 72 71 70 69 68 67 65 63 61 59 57 56 55 55 54 55 56 57 59 62 65 68 71 73 74 74 74 74
64 64 64 64 63 62 61 61 60 60 60 60 59 59 58 58 57 58 57 57 56 54 54 53 52 52 51 50 49 48 47 46 45 44 43 42 42 42 42 42 42 42 43 44 46 48 51 55 58 63 67 71 73 74 75 74 73 73 72 72 71 70 69 68 66 64 62 60 59 57 56 55 55 54 54 55 56 58 61 64 67 69 71 72 72 72
64 64 64 63 63 61 60 60 60 59 59 59 59 58 58 57 56 56 56 55 54 53 52 51 50 49 47 46 46 45 44 43 42 41 40 40 39 39 40 40 40 40 40 41 43 45 48 51 55 59 64 68 71 73 74 74 74 73 73 72 71 71 70 69 67 66 64 62 61 59 58 57 56 55 55 55 55 56 58 60 63 65 68 69 70 69
64 64 64 63 62 60 59 58 58 58 59 58 58 58 57 56 55 54 54 53 52 52 51 50 49 46 44 43 42 42 41 41 39 39 38 38 38 38 38 38 38 38 38 39 40 42 45 48 52 56 60 65 68 71 73 73 74 73 73 72 72 71 70 70 69 67 66 64 63 62 60 59 58 57 57 56 56 56 57 58 60 62 64 66 66 66
64 64 63 62 60 59 57 57 57 57 57 57 57 57 56 55 54 53 53 52 51 50 49 48 47 44 41 39 39 39 39 38 38 37 37 36 35 35 35 35 36 36 36 37 38 40 42 45 49 53 57 61 65 68 71 72 73 73 72 72 71 71 71 70 70 69 68 66 65 64 63 62 61 59 58 58 57 57 57 58 58 59 60 62 63 63
64 63 62 61 59 57 56 55 56 56 56 56 56 56 55 54 53 52 51 51 50 49 48 47 45 42 39 36 35 35 36 37 36 36 35 33 31 31 32 33 33 33 34 35 36 37 40 42 46 49 53 57 61 65 68 70 71 72 72 72 71 71 71 71 70 70 69 68 67 66 65 64 63 61 60 59 59 58 58 58 57 56 56 57 58 60
63 61 60 59 57 56 55 54 54 55 55 55 55 54 54 53 52 51 50 49 49 48 47 46 44 41 37 33 31 31 33 35 35 34 32 30 27 27 29 30 31 31 31 32 33 35 38 40 43 46 50 53 57 61 64 67 69 70 71 71 71 71 71 71 70 70 70 69 68 67 66 65 64 63 62 60 60 59 58 57 56 54 53 53 55 56
61 59 58 57 56 55 54 53 53 54 54 54 54 54 53 52 51 50 49 48 47 47 46 44 42 40 37 33 30 29 31 33 33 32 29 26 24 24 26 28 29 28 28 29 31 33 36 38 41 44 47 50 54 57 60 63 66 68 69 70 70 70 70 70 70 70 70 69 69 68 67 66 65 64 63 61 60 59 58 57 55 53 52 52 52 54
59 57 56 55 54 54 53 53 53 53 53 53 53 53 52 51 50 48 47 47 46 45 44 43 40 38 36 33 30 29 30 31 31 29 26 23 21 21 24 26 26 26 26 26 28 31 33 36 39 41 44 47 50 54 57 60 63 65 66 67 68 68 69 69 69 70 69 69 69 68 67 66 65 64 62 61 60 59 58 56 54 52 51 51 51 52
57 55 53 53 53 53 53 52 52 52 53 53 53 52 51 50 49 48 46 45 44 43 42 41 38 36 33 31 29 28 29 29 29 27 24 21 19 20 22 24 24 24 23 24 26 28 31 33 36 38 41 44 47 51 54 56 59 61 62 63 65 66 66 67 68 68 68 68 68 67 66 65 64 63 62 60 59 58 57 55 53 51 50 50 50 50
56 54 52 52 52 53 53 52 52 52 52 52 52 52 51 50 49 47 45 44 43 41 40 38 36 33 31 29 27 27 27 28 28 26 23 19 18 18 21 22 22 21 21 22 24 26 28 30 32 35 38 41 45 47 50 53 55 57 58 60 61 62 63 64 65 65 65 65 65 65 64 64 63 62 60 59 58 57 56 54 52 50 49 49 48 48
55 53 52 51 51 52 52 52 52 52 52 52 52 51 51 50 48 46 44 42 41 39 37 35 33 30 28 27 26 25 26 27 26 24 21 18 16 17 20 20 20 19 19 20 22 23 25 27 29 32 35 38 41 44 47 49 51 53 54 56 57 58 59 60 60 61 61 62 62 61 61 61 60 59 58 58 57 56 54 52 50 48 47 47 47 47
54 52 52 51 51 51 51 52 51 51 51 51 51 51 50 49 48 46 43 41 39 37 35 32 29 27 26 25 24 24 24 25 25 23 20 17 15 16 18 19 18 18 18 19 20 21 23 25 27 29 32 35 38 41 43 45 47 49 50 52 53 54 55 55 56 57 57 57 57 58 58 57 57 57 56 56 55 54 52 50 48 47 46 46 45 45
52 52 51 51 51 51 51 51 51 51 51 51 50 50 49 48 46 44 42 39 37 35 33 30 27 25 23 22 22 22 22 23 23 22 19 16 14 14 16 17 17 17 17 18 19 20 21 23 25 27 30 32 35 38 40 42 44 45 46 48 49 50 50 51 52 52 53 53 54 54 54 54 54 54 54 54 53 52 50 48 47 46 45 44 43 43
51 51 51 51 50 50 50 50 50 50 50 50 49 49 48 46 44 41 39 37 35 33 31 28 25 23 21 20 19 20 20 21 21 20 18 15 13 13 15 16 16 16 16 17 18 19 20 21 23 25 28 30 32 34 36 38 40 41 42 44 45 46 47 48 48 49 49 50 50 50 50 50 51 51 51 51 50 49 48 46 45 45 44 42 41 41
50 50 50 50 50 50 50 50 49 49 49 49 48 47 46 44 41 38 36 34 32 31 28 25 23 20 18 18 17 17 18 19 19 19 17 15 13 12 14 15 16 16 16 17 18 19 20 21 22 24 26 28 30 31 33 34 36 37 39 40 41 42 43 44 45 45 46 46 46 47 47 47 47 47 48 47 47 46 45 45 44 43 43 42 40 39
49 49 49 49 49 49 48 48 48 48 47 47 46 45 43 41 38 35 33 31 29 27 25 23 20 18 16 15 15 15 16 17 17 17 16 14 12 11 13 14 15 16 16 17 18 19 19 20 22 23 25 26 28 29 30 32 33 34 36 37 39 40 40 41 42 42 42 43 43 43 43 44 44 44 45 45 44 44 44 43 43 43 42 41 40 38
47 47 47 47 47 47 47 46 45 45 44 43 42 41 40 38 35 32 29 27 25 23 21 20 18 15 14 13 12 13 14 14 15 16 15 13 11 11 12 14 15 15 16 17 18 19 19 20 21 22 23 25 26 27 28 29 31 32 34 35 36 37 38 38 39 39 39 40 40 40 40 41 41 42 42 42 43 42 42 42 42 42 41 40 39 37
45 45 45 45 45 44 44 43 42 41 40 39 38 37 35 34 31 29 26 24 22 20 18 17 16 14 13 11 10 10 11 12 13 14 14 12 11 11 12 13 14 14 15 16 17 18 19 19 20 21 22 23 24 25 26 27 29 30 32 33 34 34 35 36 36 36 36 37 37 37 38 38 39 39 40 41 41 41 41 41 41 41 40 39 38 37
43 43 42 42 42 41 40 39 38 36 35 34 33 32 30 29 27 26 24 22 21 19 17 16 15 14 12 11 9 7 7 9 11 13 13 12 11 11 11 13 13 14 14 15 16 16 17 18 19 20 21 22 23 24 25 26 27 28 30 30 31 32 33 33 33 34 34 34 35 35 35 36 37 37 38 39 40 40 40 40 40 40 39 39 37 36
40 39 39 38 37 36 35 34 33 31 30 29 28 27 26 25 24 23 22 22 21 19 17 15 14 14 13 11 9 6 5 6 10 12 12 12 11 11 12 12 13 13 13 14 14 14 15 17 18 19 19 20 21 22 24 25 26 27 28 28 29 30 30 31 31 31 32 32 33 33 34 34 35 36 37 38 39 39 39 39 39 39 39 38 37 36
36 36 34 33 32 31 30 29 27 26 25 24 23 22 22 22 22 22 22 22 21 20 18 15 14 13 12 11 9 7 5 6 9 11 12 11 11 11 11 12 12 12 12 13 13 14 14 15 16 17 18 19 20 21 22 23 24 25 25 26 27 27 28 28 29 29 30 30 31 31 32 33 34 35 36 37 38 39 39 39 39 39 38 38 37 36
32 31 30 28 27 26 25 24 23 22 21 20 20 20 20 20 21 21 21 22 21 21 19 17 15 13 11 10 8 7 6 7 9 11 11 11 11 11 11 12 12 12 12 12 12 13 14 15 15 16 17 17 19 20 21 22 23 23 24 24 24 25 26 26 27 27 28 29 30 30 31 32 33 34 36 37 38 38 38 38 38 38 38 38 37 37
27 26 25 24 23 23 22 21 21 20 19 19 19 19 20 20 21 21 22 22 22 21 20 19 17 14 11 9 7 6 6 8 10 11 11 11 11 10 11 11 12 12 11 11 11 12 13 14 15 15 15 16 18 19 20 21 21 21 22 22 23 23 24 24 25 26 27 27 28 29 30 31 33 34 35 36 37 37 38 37 37 37 38 38 38 37
24 23 22 22 21 21 20 20 19 19 19 19 19 20 20 20 21 21 22 22 21 21 20 19 18 15 13 9 6 5 6 8 9 10 11 11 10 10 10 10 11 11 11 11 11 11 12 13 14 14 15 15 16 18 19 19 19 19 20 20 21 22 22 23 24 25 26 27 28 29 30 31 32 34 35 36 37 37 37 37 37 37 37 38 38 38
21 21 21 21 21 21 20 20 20 20 20 20 20 20 21 21 21 21 21 21 20 20 19 19 18 16 14 11 8 6 6 6 8 9 10 10 10 9 9 9 10 10 10 10 10 10 11 12 13 14 14 14 15 16 17 17 17 18 18 19 20 21 21 22 23 24 25 26 27 28 30 31 32 34 35 35 36 36 36 36 36 37 37 37 37 37
21 21 22 22 22 22 22 22 22 22 22 21 21 21 21 21 21 20 20 19 19 19 19 18 18 17 14 12 9 7 6 6 6 8 9 9 9 8 8 8 9 9 9 9 8 9 10 11 12 13 13 14 15 15 15 15 15 16 17 18 19 19 20 21 22 23 24 25 27 28 29 31 32 33 34 35 35 35 36 36 36 36 36 36 36 37
22 22 23 23 24 24 25 25 24 24 24 23 22 22 22 21 21 20 19 18 18 18 18 18 17 16 14 12 9 7 6 5 5 6 7 8 8 7 7 7 7 7 7 7 7 7 8 10 11 12 13 13 14 14 14 13 14 14 15 16 17 18 19 20 22 23 24 25 27 28 29 31 32 33 34 34 34 34 34 34 34 34 35 35 35 36
22 23 24 25 25 26 26 26 25 25 24 24 23 23 23 22 21 20 19 18 17 16 16 16 16 15 13 11 9 7 6 5 5 5 6 6 6 6 5 5 5 5 5 5 5 6 7 8 10 11 12 12 13 13 12 12 12 13 14 15 16 17 19 20 21 23 24 26 27 28 30 31 32 33 33 33 33 33 33 32 32 33 33 34 34 35
23 24 25 25 26 26 26 25 25 24 23 23 23 23 23 22 20 19 17 16 15 15 14 14 14 13 11 9 8 6 5 5 4 4 4 5 5 5 4 4 3 3 3 4 5 6 6 8 9 9 10 11 11 11 11 11 12 13 14 15 16 17 18 20 22 23 25 26 28 29 30 31 32 32 32 32 32 32 31 31 30 31 31 32 33 33
25 25 25 26 26 25 25 24 23 23 23 23 23 22 22 20 19 17 16 15 14 13 12 12 12 11 9 8 6 5 4 4 3 3 3 3 3 3 3 2 2 3 3 4 5 5 6 7 8 9 9 10 10 10 10 10 11 12 13 14 15 17 18 20 22 24 25 27 28 29 30 31 31 32 32 32 31 30 30 29 29 29 30 31 32 32
26 26 26 26 25 25 24 23 23 23 23 22 22 21 20 18 17 15 14 13 12 12 11 11 10 9 8 6 5 4 3 3 2 2 2 2 2 2 2 2 2 3 4 4 5 6 6 7 8 8 8 8 8 8 9 9 10 12 13 14 16 17 19 21 22 24 25 27 28 29 30 31 31 31 31 31 30 29 28 28 28 28 29 30 31 32
27 26 25 25 24 24 23 22 22 22 22 21 21 19 18 16 15 13 12 12 11 11 10 10 9 8 6 5 4 3 2 2 1 1 1 1 2 2 2 2 2 3 3 4 5 5 6 6 7 7 7 7 7 7 7 8 10 11 13 14 16 17 19 21 23 24 26 27 28 29 30 30 30 30 30 29 29 28 27 27 27 28 29 29 30 31
26 25 24 24 23 22 21 21 20 20 20 19 18 17 15 14 13 12 11 10 10 10 9 8 7 6 5 3 3 2 2 2 1 1 1 1 1 1 1 2 2 2 2 3 4 5 5 5 5 6 6 6 5 5 6 7 9 11 12 14 16 18 19 21 23 24 26 27 28 29 29 30 30 29 29 28 27 26 26 26 27 27 28 29 30 30
25 23 22 21 20 19 19 18 18 18 17 16 15 14 13 12 11 10 10 9 9 8 8 7 6 5 4 3 2 2 3 3 2 2 2 2 1 1 1 0 0 0 1 2 2 3 4 4 4 4 4 4 4 5 5 7 8 10 12 14 16 17 19 21 22 24 26 27 28 29 29 29 29 28 28 27 26 25 25 26 26 27 28 28 29 30
22 21 20 19 18 17 16 16 16 15 15 14 13 12 11 11 10 9 9 8 8 8 7 7 6 6 5 4 4 4 4 4 4 4 4 3 3 3 2 2 1 1 1 1 1 1 2 2 3 3 3 3 3 4 5 6 8 10 12 14 16 17 19 20 22 24 25 27 28 28 29 29 28 27 26 26 25 24 24 25 26 26 27 28 29 29
19 18 17 17 16 15 15 14 14 14 14 13 13 12 11 10 10 9 9 9 9 9 9 9 8 8 8 8 7 7 7 6 6 6 6 5 5 4 4 4 3 3 2 2 1 2 2 2 3 3 3 3 4 5 6 7 8 10 11 13 15 17 19 20 22 24 25 26 27 28 28 28 27 26 26 25 24 24 24 24 25 26 26 27 28 28
18 17 16 16 15 14 14 14 14 14 13 13 12 12 11 11 10 10 11 11 12 12 11 11 11 11 11 11 11 10 10 9 8 8 8 7 7 7 6 5 5 5 4 4 3 3 3 3 3 4 4 4 5 6 7 8 9 10 12 14 16 17 19 20 22 24 25 26 27 27 28 27 27 26 25 24 24 23 23 24 24 25 26 27 27 28
18 17 17 16 15 14 14 13 13 13 13 13 12 12 12 12 12 13 13 13 13 13 13 13 13 13 13 13 13 12 12 11 11 10 10 10 9 9 8 8 8 7 7 7 6 6 5 5 5 5 5 6 6 7 8 9 10 11 13 14 16 18 19 21 22 24 25 26 27 27 27 27 27 26 25 24 24 23 23 24 24 25 26 26 27 28
18 18 17 16 15 14 13 13 12 12 12 12 12 12 12 13 13 14 14 14 14 13 13 13 13 13 13 12 12 11 11 11 10 10 10 10 10 11 10 11 11 11 11 10 10 10 9 9 8 8 8 8 8 9 9 10 11 12 14 15 17 18 19 21 22 24 25 26 26 27 27 27 26 25 25 24 23 23 23 23 24 25 26 27 28 29
18 18 17 16 16 15 14 13 12 12 11 11 11 12 12 13 13 13 13 12 12 12 12 12 12 12 11 10 9 9 8 8 7 7 7 7 8 8 9 10 10 11 12 13 13 14 13 13 12 11 10 10 10 11 11 12 13 14 15 16 17 19 20 21 23 24 25 26 26 26 26 26 25 25 24 23 23 23 23 23 24 24 25 26 28 30
Wind_Direction
305 304 304 303 302 301 300 299 298 297 296 294 293 292 291 291 290 290 290 289 289 288 288 287 286 285 284 284 283 282 281 281 280 279 278 277 276 274 272 269 266 263 259 255 251 248 246 244 243 243 243 243 244 244 244 244 244 244 245 245 245 245 245 244 244 243 242 242 242 242 241 239 238 239 240 242 244 245 244 243 242 240 238 236 234 232
306 305 304 303 302 301 300 299 298 297 296 295 294 294 293 292 292 291 291 290 290 289 289 288 287 286 285 285 284 284 283 282 282 281 280 278 277 275 272 270 267 263 260 255 251 248 245 243 242 241 241 242 242 242 243 243 243 243 243 244 244 244 244 244 244 244 243 243 242 242 242 241 240 239 239 241 243 244 245 245 244 242 240 238 237 235
306 305 304 303 302 301 300 299 299 298 297 296 296 295 295 294 293 292 292 291 291 290 289 289 288 287 287 286 286 285 285 284 284 282 281 280 278 275 273 270 267 264 260 256 252 248 245 242 241 239 239 239 240 241 241 241 242 242 242 242 243 243 243 243 244 244 244 243 243 243 243 243 242 241 240 240 241 243 245 245 245 244 242 240 239 238
306 305 304 303 302 301 300 300 299 299 298 297 297 296 296 295 294 293 293 292 291 291 290 289 289 288 288 288 288 288 287 287 286 284 283 281 279 276 274 271 267 264 260 256 252 248 244 241 239 238 238 238 238 239 239 240 240 241 241 241 241 242 242 242 243 243 243 243 243 243 243 243 243 242 241 241 241 242 244 245 245 245 243 242 241 240
306 305 304 303 302 301 301 300 300 299 299 298 298 297 296 296 295 294 294 293 292 291 291 290 290 290 290 290 290 290 289 289 288 286 285 282 280 277 274 271 268 264 260 256 252 248 244 241 238 237 236 236 237 237 238 238 238 239 239 239 240 240 240 241 241 242 242 243 243 243 242 242 242 242 242 242 242 242 243 245 246 245 244 243 242 241
306 305 304 304 303 302 302 301 301 300 300 299 298 297 297 296 296 295 295 294 293 293 292 291 291 291 292 292 292 292 292 291 289 288 286 284 281 278 275 272 268 264 260 256 252 248 244 240 238 236 235 235 235 236 236 237 237 237 237 238 238 238 238 239 239 240 241 241 242 242 242 242 242 242 242 243 243 243 243 244 245 246 246 244 243 243
306 305 305 304 303 303 303 302 302 302 301 300 299 298 297 297 296 296 296 295 295 294 294 293 293 293 294 294 294 294 293 292 291 289 287 285 282 279 276 272 269 265 261 256 252 248 244 240 237 235 234 234 234 234 235 235 235 236 236 236 236 236 236 237 237 238 239 240 240 241 241 242 242 242 242 243 243 243 243 244 245 246 246 245 244 243
306 305 305 304 304 304 303 303 303 303 302 301 301 300 299 298 297 297 297 296 296 296 295 295 295 295 296 296 296 295 294 293 292 290 288 285 283 279 276 273 269 265 261 256 252 248 244 240 237 234 233 232 232 233 233 234 234 234 235 235 234 234 234 235 235 236 237 238 239 240 241 241 242 242 242 242 243 243 243 244 244 245 246 246 245 244
306 305 305 305 305 305 304 304 304 304 303 302 302 301 300 299 299 298 297 297 297 297 296 296 297 297 297 297 297 296 295 294 292 290 288 286 283 280 276 272 268 264 260 256 252 248 244 240 237 234 232 231 231 231 232 232 233 233 233 233 233 233 233 233 233 234 235 236 237 239 240 241 241 242 242 242 243 243 243 244 244 245 246 246 246 245
306 305 305 305 305 305 305 305 305 304 303 303 302 301 301 301 300 299 298 298 297 297 297 297 298 298 299 298 298 297 295 294 292 290 288 286 283 279 276 271 268 264 260 256 252 248 245 241 237 234 232 231 231 231 231 231 232 232 232 233 233 233 232 232 232 233 233 234 235 237 238 239 241 241 242 242 242 243 243 243 244 244 245 246 246 245
306 306 306 306 306 306 306 306 305 304 303 302 302 301 301 301 301 300 299 299 298 298 298 298 299 300 300 300 299 297 295 293 292 290 288 285 282 279 275 271 266 262 259 255 252 248 245 242 238 235 233 231 230 230 230 231 231 231 232 232 232 232 232 232 232 232 232 233 234 235 237 238 240 241 242 242 242 242 243 243 243 244 245 245 246 246
307 307 307 307 307 307 307 306 306 305 304 303 303 302 302 301 301 300 300 300 300 300 300 300 300 301 301 301 300 298 295 293 291 289 287 284 281 278 274 270 266 262 258 254 251 248 245 242 239 236 233 231 230 230 230 230 230 231 231 232 232 232 232 232 232 232 232 233 233 234 236 237 239 240 242 242 243 243 243 243 243 243 244 245 245 245
308 308 308 308 308 308 308 308 306 305 304 304 304 303 303 302 302 301 301 301 301 302 302 302 302 302 302 302 301 299 296 293 291 288 285 282 279 276 272 269 265 261 257 253 250 247 244 242 239 236 234 232 230 229 229 230 230 231 231 231 232 232 232 233 233 233 233 233 234 235 236 237 238 240 241 242 243 243 243 243 243 243 243 244 244 244
309 308 308 309 309 309 309 308 307 306 305 305 305 304 304 303 303 302 302 302 302 303 303 303 303 304 304 303 301 299 297 294 291 288 284 281 277 275 271 268 264 260 256 253 249 246 244 241 239 236 234 232 231 230 229 229 230 230 231 231 232 232 233 233 233 233 234 234 234 235 236 237 238 240 241 242 243 243 243 243 243 242 242 243 243 244
309 309 309 309 310 310 309 308 307 306 306 306 305 305 304 304 303 303 303 303 304 304 304 304 304 304 305 304 302 300 297 295 291 288 284 281 278 276 273 269 264 260 256 253 249 246 243 241 238 236 234 232 231 230 230 230 230 230 231 231 232 232 233 233 234 234 234 234 235 236 236 237 238 240 241 242 243 243 243 243 242 242 242 242 243 243
310 310 310 310 310 309 309 307 307 306 306 306 305 305 304 304 304 304 304 304 305 305 305 305 305 305 305 304 303 300 298 295 291 288 286 284 282 279 275 270 265 260 256 252 249 245 242 240 238 236 234 233 231 231 230 230 230 231 231 231 232 232 233 233 234 234 235 235 235 236 237 238 238 240 241 242 242 243 243 243 242 242 242 242 242 242
310 311 310 310 310 309 308 307 306 306 306 305 305 304 304 304 304 305 305 306 306 307 307 307 307 307 307 305 303 300 297 294 291 289 288 287 285 280 275 270 266 261 256 252 248 245 242 239 237 235 234 232 231 231 230 230 230 231 231 232 232 232 233 233 234 234 235 235 236 236 237 238 238 239 240 241 241 242 242 242 242 241 241 241 241 241
311 311 310 310 309 308 307 306 306 306 305 305 304 304 304 304 305 306 307 307 308 308 308 308 309 309 309 307 305 300 296 293 291 290 289 288 284 278 272 269 265 261 256 251 247 244 241 238 236 234 233 232 231 231 230 230 231 231 231 232 232 233 233 234 234 235 235 236 236 237 237 238 238 239 240 240 241 241 241 241 240 240 239 240 240 240
311 311 310 310 308 307 307 306 306 306 305 305 304 304 304 305 306 307 308 309 309 309 309 310 310 310 310 309 307 302 297 294 292 291 290 288 283 276 271 267 264 260 256 251 247 244 241 238 236 234 232 231 231 230 230 230 231 231 232 232 233 233 234 234 234 235 235 236 236 237 237 238 238 239 239 240 240 239 239 239 238 237 237 238 238 238
311 311 310 309 308 307 307 307 307 306 306 305 305 305 306 307 308 309 310 310 310 310 310 310 311 311 311 310 307 303 299 295 293 292 291 288 283 275 270 266 263 259 255 251 247 244 241 238 235 234 232 231 230 230 230 231 231 231 232 233 233 234 234 234 235 235 235 236 236 236 237 237 238 238 238 238 238 238 237 237 236 235 235 236 236 236
311 311 311 310 308 308 308 307 307 307 306 306 306 306 307 308 309 310 311 312 311 311 311 311 312 312 311 310 307 304 300 296 294 293 291 288 282 274 268 265 261 258 254 250 247 244 241 238 236 234 232 231 231 230 230 230 231 231 232 233 233 234 234 234 235 235 235 236 236 236 236 236 236 236 236 236 236 235 235 234 233 232 233 233 234 234
312 311 311 310 309 308 308 308 308 307 306 306 306 307 308 309 310 312 312 312 312 311 311 312 312 313 312 310 307 303 299 297 295 293 291 287 280 272 267 263 260 256 252 249 246 244 241 238 236 234 233 232 231 231 230 230 231 231 232 232 233 233 234 234 234 235 235 235 235 235 235 235 234 234 234 233 233 233 232 232 231 230 230 231 231 230
312 311 311 310 309 308 308 308 307 307 307 307 307 308 309 310 311 312 313 313 313 312 313 313 314 314 312 310 306 302 299 296 294 293 292 288 279 270 266 262 259 254 249 246 244 242 240 238 236 234 232 232 231 231 231 231 231 231 231 232 232 232 233 233 234 234 234 234 234 234 233 233 232 232 231 231 230 230 230 229 228 228 228 228 228 226
311 311 310 310 309 308 308 307 307 307 306 307 307 308 309 310 312 313 314 314 314 314 314 315 316 315 313 308 304 301 297 294 293 292 291 287 279 269 264 262 257 252 247 243 241 240 238 237 235 234 232 232 231 231 231 231 231 231 231 231 232 232 232 232 232 232 233 232 232 232 231 231 230 229 229 228 228 228 227 226 225 226 226 226 224 222
311 311 310 309 309 308 307 307 307 307 307 307 308 309 310 311 312 313 315 315 315 315 316 317 318 317 313 308 302 298 294 292 291 290 289 285 278 268 263 260 256 250 245 241 239 237 236 235 235 234 233 232 231 231 231 231 231 231 231 231 231 231 231 231 231 231 231 231 230 230 229 229 228 227 227 226 226 225 224 223 223 224 225 224 222 219
311 310 309 309 308 307 307 306 306 307 307 308 309 309 310 311 313 315 316 317 317 318 319 320 320 318 314 307 301 295 291 289 289 288 286 283 275 266 261 259 255 249 243 239 237 235 233 233 233 233 233 232 231 231 230 230 230 230 230 230 230 230 230 230 230 229 229 229 228 228 227 227 226 226 225 224 223 222 221 220 221 222 223 223 221 218
310 310 309 308 307 306 306 306 306 307 307 308 309 310 311 313 315 318 320 321 321 322 324 325 325 322 317 309 301 295 290 288 287 286 285 282 274 265 260 258 256 251 245 240 237 234 232 231 232 232 232 232 231 230 230 229 229 229 229 229 229 228 228 228 228 228 228 227 227 226 225 225 224 223 223 222 221 219 218 218 219 220 221 222 220 218
309 308 307 306 305 305 305 305 306 307 308 308 309 311 312 315 318 321 324 326 327 330 333 334 334 331 326 318 306 296 290 288 286 286 285 283 278 269 261 259 257 253 247 242 238 236 233 231 231 231 231 231 231 230 229 229 228 228 228 227 227 227 227 227 226 226 226 225 225 224 223 222 222 221 220 219 217 216 216 216 217 218 219 220 219 218
308 307 306 305 304 304 305 306 307 307 308 310 311 312 315 318 322 326 330 333 336 340 344 345 345 343 340 331 317 302 294 291 289 288 288 286 283 275 266 262 259 255 250 244 241 238 236 233 232 231 231 231 230 230 229 228 227 227 226 226 226 225 225 225 225 224 224 223 223 222 221 220 219 218 217 216 215 214 214 214 215 216 217 218 218 217
308 306 305 305 305 305 306 307 308 309 311 312 314 316 319 322 326 331 336 339 343 348 352 356 357 356 353 348 336 319 303 299 297 295 293 292 288 281 272 266 261 257 251 245 241 238 237 235 234 233 232 231 230 230 229 227 227 226 225 225 224 224 223 223 223 222 222 221 220 219 218 217 216 215 214 213 212 212 212 213 214 215 215 215 215 215
308 307 307 306 307 308 309 310 311 313 314 316 318 321 324 328 333 337 340 343 346 350 355 0 4 5 2 359 355 348 328 317 308 302 298 296 292 284 274 268 263 257 251 245 239 236 234 234 234 233 231 231 230 229 228 227 226 225 224 224 223 222 222 221 220 219 219 218 217 216 215 214 213 212 211 210 210 210 210 211 212 213 213 213 213 212
310 310 310 310 311 312 313 315 316 318 319 321 324 327 330 334 338 341 343 345 345 347 350 356 3 6 6 2 360 358 351 333 315 305 301 297 292 284 275 268 262 256 251 244 238 233 231 231 231 231 230 229 229 228 227 226 225 224 223 222 221 220 220 219 218 217 216 215 214 213 212 211 210 209 208 207 207 208 209 210 211 211 211 211 210 210
315 315 316 317 318 319 320 321 322 324 325 327 329 332 335 337 340 342 343 344 344 344 345 348 352 357 1 2 1 1 356 338 320 309 303 299 293 284 275 268 261 255 250 245 238 232 229 228 228 228 227 227 227 227 226 225 223 222 221 220 219 218 217 216 214 213 213 212 211 210 209 208 206 205 205 205 205 206 208 209 209 210 209 209 208 208
322 323 324 326 327 328 328 328 328 329 330 332 333 334 336 337 338 339 340 341 341 341 341 341 342 344 349 353 359 3 358 339 324 313 306 303 295 285 275 268 261 254 249 244 237 231 228 226 225 225 224 224 225 225 225 223 222 220 218 217 216 214 213 212 211 210 209 208 207 206 205 204 203 202 202 202 203 205 206 208 208 208 208 207 206 205
330 332 333 334 335 335 334 333 332 332 333 334 334 334 334 335 335 335 335 335 336 337 338 338 337 336 336 338 343 352 352 338 325 314 307 303 296 286 275 268 261 254 247 241 235 229 225 224 223 222 222 222 223 224 223 222 219 217 215 214 212 211 209 208 207 206 205 205 204 203 202 201 200 200 200 200 201 203 205 206 207 207 206 205 204 204
338 339 339 339 339 338 336 334 333 332 333 333 333 333 333 332 332 331 330 331 332 333 334 335 335 333 330 327 326 329 334 328 319 311 305 300 293 284 275 266 259 252 245 238 231 226 222 220 220 220 219 220 222 223 222 219 216 214 212 210 208 207 205 204 203 202 201 201 200 199 198 198 197 197 197 198 200 202 204 205 206 205 205 204 203 202
341 341 340 338 337 336 334 332 330 329 329 329 330 330 330 330 329 328 328 328 328 330 331 332 332 331 328 324 320 318 319 317 312 307 302 297 290 282 273 264 256 250 244 236 228 222 218 217 217 217 217 218 220 221 220 216 213 210 208 206 204 203 201 200 198 198 197 196 196 195 195 194 194 195 196 197 199 201 203 204 204 204 203 203 202 201
338 337 335 333 331 329 327 325 324 323 323 323 324 326 327 327 327 326 326 326 326 327 328 329 328 327 326 322 320 318 318 318 315 311 306 300 293 285 274 264 257 251 244 233 223 216 214 213 214 214 215 217 218 219 217 212 208 205 203 201 200 198 197 195 194 193 193 192 192 191 191 191 192 192 194 196 198 201 202 203 202 202 201 201 200 199
330 329 326 324 322 320 319 318 317 317 318 319 320 322 323 324 325 324 324 324 325 326 327 327 327 325 323 321 321 323 326 329 327 323 316 308 300 292 282 270 260 253 242 228 215 209 208 210 212 214 215 216 217 216 213 207 202 199 197 196 195 193 191 191 190 189 188 188 187 187 188 188 189 191 193 195 198 200 201 201 201 200 200 199 199 198
321 319 317 316 315 314 314 314 314 315 316 318 319 321 322 322 322 322 322 323 325 327 329 330 328 327 325 324 325 331 337 341 343 338 327 316 309 301 290 275 260 247 232 216 206 202 203 206 210 213 215 216 216 214 208 202 196 194 191 190 188 187 186 186 186 185 185 185 184 184 185 186 187 189 192 194 197 198 199 200 199 199 198 198 197 196
315 313 312 311 311 311 311 313 314 316 318 319 320 320 321 322 322 321 321 323 326 329 332 333 332 331 329 329 333 340 347 351 354 349 336 319 309 301 293 270 241 221 209 202 198 198 199 203 207 211 214 216 215 210 204 197 191 188 186 184 182 181 182 182 182 182 182 182 182 182 182 183 185 188 190 193 195 197 197 197 197 197 196 196 195 194
315 312 311 310 309 309 310 312 314 316 318 319 320 321 323 324 325 324 324 324 326 330 334 335 336 336 336 336 340 348 357 2 3 355 336 307 289 278 269 245 220 204 196 194 194 194 197 202 205 210 212 214 212 206 199 192 187 184 181 178 177 178 178 179 179 180 179 179 179 179 180 182 184 186 189 192 193 194 195 195 194 194 194 193 193 192
318 316 314 313 311 311 312 313 314 316 318 319 321 324 328 330 331 331 330 329 330 333 336 339 341 344 347 350 354 358 8 10 5 344 303 271 257 249 238 229 213 204 196 193 194 195 198 202 206 209 212 212 209 203 194 185 181 178 176 174 174 175 176 177 177 177 177 177 177 178 179 180 183 185 188 190 192 192 192 192 191 191 191 191 190 190
323 322 320 318 317 316 316 317 318 320 321 323 326 330 334 337 339 339 339 338 338 339 342 346 350 354 0 9 14 18 17 17 6 332 290 271 260 251 240 227 214 203 195 196 196 197 198 202 204 207 209 209 206 198 187 180 176 173 172 172 172 173 174 175 175 175 175 175 176 176 178 179 182 184 187 188 190 190 190 190 189 188 189 189 189 189
329 329 328 327 326 325 325 325 327 329 332 335 339 342 345 347 348 349 348 347 347 351 357 3 8 12 15 21 25 26 28 28 24 16 4 357 348 342 332 307 204 165 172 183 189 197 201 204 202 199 198 198 196 189 179 173 170 169 169 170 171 172 173 174 174 174 174 174 174 175 176 178 180 182 184 186 187 187 187 187 187 186 186 187 187 188
338 339 338 338 338 337 337 339 342 345 348 352 356 358 359 359 360 1 1 3 8 16 23 28 28 28 27 26 27 30 35 38 39 39 39 37 36 33 36 41 52 73 99 125 144 163 182 192 193 186 178 172 170 165 164 163 164 165 165 167 169 171 172 173 173 174 174 173 173 174 175 177 179 180 182 183 184 185 185 185 185 185 185 186 186 187
350 351 352 352 352 352 354 357 360 3 6 10 12 12 12 13 15 17 22 29 36 41 43 42 40 40 39 39 40 42 44 45 47 50 53 56 59 60 62 64 67 71 78 88 101 116 138 153 164 168 161 151 146 147 150 154 158 160 162 165 167 169 171 172 173 173 173 173 173 173 174 175 177 178 179 181 182 183 183 183 183 184 184 185 186 186
4 6 7 7 7 8 9 12 14 17 20 22 23 24 26 29 33 38 43 48 50 52 51 51 51 51 51 51 53 54 56 57 58 60 63 66 68 70 72 74 76 78 82 86 93 103 116 131 144 153 152 147 141 140 143 148 153 157 160 164 167 169 170 172 173 173 172 172 172 172 173 174 175 176 177 179 180 181 182 182 183 183 183 184 185 185
16 18 20 20 20 21 21 23 26 27 29 31 32 34 38 44 48 52 55 56 56 56 57 57 57 57 57 57 59 60 62 63 64 66 68 70 72 74 76 78 81 83 85 88 92 97 103 110 120 132 140 143 140 138 141 146 150 155 159 163 166 168 171 172 172 172 171 171 171 171 172 173 174 175 176 177 178 180 181 182 182 183 183 184 184 184
24 26 28 29 30 30 31 33 35 37 38 39 40 43 47 51 55 57 58 58 58 59 59 59 59 58 58 58 59 60 61 62 63 64 66 69 72 75 78 80 83 86 88 89 91 92 95 99 104 112 122 132 138 141 143 145 149 153 157 162 166 169 171 172 172 171 171 170 170 171 171 172 174 175 176 176 178 180 181 182 183 183 184 184 184 183
29 31 33 35 36 38 40 42 44 46 47 47 47 49 51 54 56 57 58 58 59 59 58 57 56 55 54 53 53 54 54 56 57 60 63 66 69 74 77 81 84 86 89 89 89 90 91 92 95 100 107 118 128 136 142 145 148 152 157 162 166 169 171 171 171 170 170 169 169 169 170 171 173 174 175 176 177 180 181 183 184 185 185 186 186 185
Height
5372 5369 5366 5363 5361 5358 5355 5353 5352 5349 5346 5344 5343 5341 5339 5337 5335 5333 5331 5329 5327 5324 5322 5320 5318 5316 5314 5313 5313 5312 5310 5309 5308 5306 5305 5305 5304 5305 5305 5306 5308 5309 5311 5313 5315 5318 5322 5325 5328 5331 5333 5336 5338 5341 5343 5345 5348 5350 5352 5354 5357 5360 5363 5365 5368 5371 5374 5377 5380 5383 5386 5390 5393 5396 5399 5401 5403 5405 5408 5412 5415 5419 5424 5428 5431 5434
5365 5361 5358 5356 5354 5351 5348 5346 5345 5343 5340 5337 5335 5334 5332 5330 5328 5326 5324 5322 5320 5318 5315 5313 5310 5308 5307 5306 5305 5304 5303 5301 5299 5298 5297 5296 5295 5295 5296 5297 5298 5299 5301 5303 5306 5309 5313 5316 5319 5323 5325 5328 5331 5333 5336 5338 5341 5343 5346 5348 5351 5353 5356 5359 5362 5364 5368 5371 5374 5377 5379 5383 5386 5390 5393 5395 5397 5398 5401 5404 5408 5413 5417 5421 5424 5428
5358 5355 5351 5349 5347 5344 5342 5340 5338 5336 5333 5331 5328 5327 5325 5323 5321 5319 5317 5315 5313 5311 5308 5306 5303 5301 5299 5298 5297 5296 5294 5293 5291 5289 5288 5287 5286 5286 5286 5287 5288 5290 5292 5294 5296 5299 5303 5307 5310 5314 5317 5320 5323 5326 5328 5331 5334 5337 5339 5342 5345 5347 5350 5353 5355 5358 5361 5364 5368 5370 5373 5376 5379 5383 5387 5389 5391 5393 5394 5397 5401 5406 5411 5414 5417 5421
5351 5348 5345 5343 5340 5338 5336 5334 5332 5330 5328 5325 5322 5320 5318 5316 5313 5311 5310 5308 5306 5304 5302 5299 5297 5294 5292 5291 5290 5288 5286 5284 5282 5280 5279 5278 5277 5276 5276 5277 5278 5280 5282 5284 5287 5290 5293 5297 5301 5305 5308 5312 5315 5318 5321 5324 5327 5330 5333 5336 5339 5341 5344 5347 5350 5353 5355 5358 5361 5363 5367 5369 5373 5376 5380 5383 5385 5387 5388 5390 5394 5399 5404 5408 5411 5414
5345 5342 5339 5336 5333 5331 5330 5328 5327 5324 5321 5318 5316 5313 5311 5309 5306 5304 5303 5301 5299 5297 5295 5293 5290 5288 5286 5284 5282 5280 5278 5276 5273 5272 5270 5269 5268 5268 5267 5268 5268 5270 5272 5274 5277 5281 5284 5288 5292 5296 5300 5304 5308 5311 5314 5317 5321 5324 5327 5330 5333 5336 5338 5341 5344 5346 5348 5351 5354 5357 5360 5363 5366 5369 5373 5376 5379 5381 5383 5385 5388 5392 5396 5400 5404 5408
5338 5336 5333 5330 5327 5325 5324 5323 5321 5318 5315 5312 5310 5308 5305 5302 5300 5298 5296 5294 5292 5290 5288 5286 5284 5282 5280 5277 5275 5273 5270 5268 5266 5264 5262 5261 5260 5259 5259 5259 5260 5261 5263 5266 5268 5272 5275 5279 5283 5288 5292 5296 5300 5303 5307 5311 5314 5318 5321 5324 5327 5330 5333 5335 5338 5340 5342 5345 5348 5351 5354 5357 5361 5364 5367 5370 5373 5375 5378 5380 5382 5385 5388 5393 5398 5402
5331 5329 5328 5324 5321 5319 5318 5317 5315 5312 5308 5305 5303 5301 5298 5296 5294 5292 5290 5288 5286 5283 5281 5279 5278 5276 5274 5271 5268 5266 5263 5260 5258 5256 5255 5253 5253 5252 5251 5251 5252 5253 5255 5258 5260 5263 5267 5270 5275 5279 5284 5288 5293 5297 5300 5304 5308 5311 5314 5318 5321 5324 5327 5329 5332 5334 5337 5339 5342 5346 5349 5352 5355 5358 5362 5364 5367 5370 5373 5375 5377 5379 5382 5386 5391 5395
5325 5323 5321 5319 5316 5313 5312 5311 5309 5306 5302 5298 5295 5293 5291 5289 5288 5286 5284 5282 5280 5278 5275 5273 5271 5270 5268 5266 5263 5259 5256 5253 5251 5249 5248 5247 5246 5245 5245 5245 5245 5246 5248 5250 5252 5255 5258 5262 5266 5271 5276 5280 5285 5289 5293 5297 5301 5304 5308 5311 5314 5318 5320 5323 5326 5328 5331 5334 5338 5341 5344 5348 5351 5353 5357 5359 5362 5365 5368 5370 5372 5374 5377 5380 5384 5389
5320 5317 5315 5313 5311 5308 5305 5303 5303 5301 5297 5293 5289 5287 5284 5282 5280 5279 5278 5277 5275 5273 5270 5267 5265 5263 5262 5260 5257 5253 5250 5247 5245 5243 5242 5241 5240 5239 5239 5239 5239 5240 5241 5243 5245 5248 5251 5255 5259 5263 5268 5273 5278 5282 5287 5291 5294 5298 5301 5304 5308 5311 5313 5317 5319 5323 5326 5330 5333 5336 5340 5343 5346 5348 5351 5354 5357 5360 5362 5365 5367 5369 5372 5374 5378 5383
5315 5312 5310 5308 5306 5304 5301 5298 5296 5294 5292 5288 5284 5282 5279 5276 5273 5272 5271 5271 5270 5268 5266 5263 5260 5258 5256 5254 5252 5249 5245 5242 5240 5238 5237 5235 5234 5233 5233 5233 5233 5234 5235 5237 5239 5242 5245 5249 5253 5257 5261 5266 5270 5275 5280 5284 5288 5291 5294 5298 5301 5304 5307 5310 5314 5318 5322 5325 5328 5332 5335 5338 5340 5343 5346 5349 5351 5354 5357 5359 5362 5364 5367 5369 5373 5377
5309 5307 5305 5302 5300 5298 5296 5293 5290 5288 5285 5282 5279 5277 5275 5272 5268 5265 5263 5263 5264 5263 5261 5258 5256 5253 5250 5248 5246 5244 5241 5237 5235 5233 5232 5231 5229 5228 5228 5228 5228 5229 5230 5232 5234 5237 5239 5243 5247 5251 5255 5259 5264 5268 5273 5277 5280 5284 5287 5291 5294 5298 5301 5305 5309 5313 5317 5320 5323 5327 5330 5333 5335 5338 5340 5343 5346 5348 5351 5354 5357 5359 5362 5364 5367 5371
5304 5302 5299 5297 5294 5293 5290 5287 5284 5282 5279 5277 5273 5271 5269 5268 5265 5261 5258 5257 5257 5256 5255 5253 5252 5249 5247 5243 5240 5238 5235 5233 5231 5229 5228 5226 5225 5224 5223 5223 5223 5224 5225 5227 5229 5232 5234 5237 5241 5244 5248 5253 5257 5262 5266 5270 5274 5278 5282 5285 5289 5292 5296 5300 5304 5308 5312 5315 5318 5322 5324 5328 5330 5333 5335 5338 5341 5343 5346 5348 5351 5354 5356 5359 5362 5366
5299 5297 5294 5292 5289 5287 5284 5281 5278 5275 5273 5271 5268 5265 5263 5262 5260 5257 5254 5252 5251 5250 5249 5247 5246 5245 5243 5240 5236 5232 5230 5228 5226 5225 5223 5222 5221 5220 5219 5219 5219 5219 5221 5222 5224 5227 5229 5232 5235 5238 5242 5246 5250 5255 5259 5264 5268 5272 5276 5279 5283 5287 5291 5295 5299 5303 5306 5310 5313 5316 5319 5323 5325 5328 5330 5333 5335 5338 5340 5343 5346 5348 5351 5354 5358 5361
5294 5293 5290 5287 5284 5282 5279 5276 5273 5270 5267 5265 5263 5260 5258 5256 5255 5252 5250 5248 5247 5245 5243 5241 5240 5240 5239 5237 5233 5228 5225 5222 5221 5220 5218 5217 5217 5217 5216 5215 5215 5216 5217 5218 5220 5223 5225 5227 5229 5233 5236 5240 5244 5249 5253 5258 5262 5266 5270 5274 5278 5282 5286 5290 5293 5297 5301 5304 5308 5310 5313 5317 5319 5323 5325 5328 5330 5333 5336 5338 5341 5344 5347 5350 5353 5357
5291 5288 5285 5282 5279 5277 5274 5271 5268 5265 5263 5261 5258 5256 5253 5252 5250 5248 5245 5243 5242 5241 5239 5237 5235 5235 5235 5233 5229 5224 5220 5218 5216 5214 5214 5213 5213 5213 5212 5211 5211 5212 5213 5215 5217 5218 5221 5223 5225 5228 5231 5235 5239 5243 5248 5252 5256 5261 5265 5269 5273 5277 5281 5285 5288 5292 5295 5298 5302 5305 5308 5311 5314 5317 5320 5323 5325 5328 5331 5334 5337 5340 5343 5347 5349 5352
5286 5283 5279 5277 5274 5273 5270 5267 5264 5261 5258 5256 5254 5252 5249 5247 5245 5243 5242 5239 5237 5236 5234 5232 5231 5230 5231 5229 5226 5221 5217 5213 5211 5210 5210 5210 5210 5210 5208 5208 5208 5209 5210 5212 5213 5215 5217 5218 5221 5223 5227 5230 5234 5238 5242 5247 5251 5256 5260 5264 5268 5272 5275 5278 5282 5286 5289 5293 5296 5299 5302 5305 5308 5311 5314 5318 5320 5323 5326 5329 5332 5336 5340 5343 5345 5348
5280 5278 5275 5272 5270 5268 5266 5263 5260 5257 5254 5252 5250 5248 5246 5243 5241 5239 5238 5235 5233 5231 5229 5228 5226 5225 5225 5225 5223 5219 5214 5210 5208 5207 5207 5208 5208 5208 5206 5204 5204 5205 5208 5209 5210 5212 5213 5214 5217 5219 5223 5226 5229 5233 5237 5242 5246 5250 5254 5258 5261 5265 5268 5272 5276 5280 5283 5287 5290 5293 5297 5300 5304 5307 5310 5313 5316 5319 5322 5325 5329 5333 5336 5339 5342 5344
5276 5274 5271 5268 5265 5263 5261 5259 5256 5253 5251 5248 5246 5243 5242 5240 5238 5237 5234 5232 5229 5227 5225 5224 5222 5221 5219 5219 5218 5216 5211 5208 5206 5205 5205 5206 5206 5205 5203 5202 5202 5203 5204 5206 5207 5208 5209 5211 5213 5216 5219 5222 5225 5229 5233 5237 5241 5244 5247 5251 5255 5259 5263 5267 5270 5274 5277 5281 5284 5288 5292 5295 5298 5301 5304 5308 5311 5314 5318 5321 5325 5329 5332 5335 5337 5339
5272 5271 5268 5264 5261 5258 5257 5255 5252 5249 5246 5244 5241 5239 5238 5237 5236 5233 5231 5228 5226 5224 5222 5220 5218 5217 5216 5214 5213 5211 5208 5205 5203 5203 5203 5204 5204 5203 5201 5200 5200 5201 5202 5203 5204 5205 5206 5208 5210 5213 5215 5218 5221 5224 5228 5232 5235 5238 5242 5246 5250 5254 5258 5262 5265 5268 5272 5275 5279 5282 5286 5289 5293 5297 5300 5304 5307 5311 5314 5318 5322 5325 5328 5331 5333 5335
5268 5267 5264 5261 5257 5254 5252 5250 5248 5245 5243 5240 5238 5237 5235 5233 5231 5229 5227 5225 5223 5221 5219 5217 5215 5214 5212 5211 5209 5208 5205 5203 5201 5201 5201 5202 5201 5200 5199 5198 5198 5199 5200 5201 5202 5203 5204 5206 5208 5210 5213 5215 5218 5221 5224 5227 5230 5234 5238 5242 5246 5249 5252 5256 5259 5263 5267 5270 5273 5277 5281 5285 5289 5293 5296 5300 5303 5307 5310 5314 5318 5322 5324 5327 5329 5332
5263 5261 5260 5257 5253 5249 5247 5246 5244 5242 5240 5237 5235 5233 5230 5228 5226 5225 5223 5222 5220 5218 5216 5214 5213 5211 5209 5208 5206 5204 5202 5200 5199 5198 5199 5199 5199 5198 5197 5196 5197 5197 5198 5199 5200 5201 5202 5203 5206 5208 5210 5212 5214 5217 5220 5223 5227 5231 5234 5238 5241 5244 5247 5251 5254 5258 5261 5264 5268 5272 5276 5280 5284 5288 5292 5295 5299 5303 5306 5311 5314 5318 5321 5323 5326 5328
5258 5257 5255 5253 5250 5247 5244 5242 5240 5238 5236 5233 5230 5227 5225 5223 5222 5221 5220 5219 5217 5215 5214 5212 5210 5209 5207 5205 5203 5202 5200 5198 5197 5196 5197 5198 5198 5197 5195 5195 5195 5196 5197 5198 5198 5199 5200 5202 5203 5206 5208 5210 5212 5214 5217 5220 5223 5227 5230 5233 5236 5239 5243 5246 5250 5253 5257 5261 5264 5268 5272 5276 5279 5283 5287 5291 5295 5299 5303 5307 5311 5314 5317 5320 5322 5324
5255 5253 5251 5248 5246 5244 5241 5238 5236 5233 5231 5228 5226 5223 5222 5220 5218 5217 5217 5216 5214 5212 5211 5210 5208 5207 5205 5203 5201 5199 5198 5196 5195 5195 5196 5197 5196 5195 5194 5193 5194 5195 5195 5196 5197 5198 5199 5200 5202 5203 5205 5207 5209 5212 5214 5217 5220 5223 5226 5229 5233 5236 5239 5243 5246 5250 5253 5257 5260 5264 5268 5272 5275 5279 5283 5287 5291 5295 5300 5304 5308 5311 5314 5317 5319 5321
5252 5249 5247 5245 5243 5241 5237 5234 5232 5229 5227 5225 5223 5221 5219 5218 5216 5215 5214 5213 5211 5209 5208 5207 5206 5205 5203 5201 5199 5198 5196 5194 5193 5194 5195 5194 5194 5193 5193 5192 5193 5193 5194 5195 5195 5196 5197 5199 5200 5202 5203 5205 5207 5209 5212 5214 5217 5220 5223 5226 5229 5233 5236 5239 5243 5246 5249 5253 5256 5260 5264 5268 5271 5275 5279 5283 5288 5292 5297 5301 5304 5308 5311 5313 5315 5318
5249 5246 5244 5243 5240 5237 5233 5230 5228 5226 5223 5221 5219 5218 5216 5215 5214 5213 5212 5210 5208 5207 5205 5204 5203 5202 5201 5199 5197 5196 5194 5193 5193 5193 5193 5192 5192 5192 5192 5191 5192 5192 5193 5193 5194 5195 5196 5197 5198 5200 5201 5203 5205 5207 5210 5212 5215 5218 5221 5224 5227 5230 5233 5236 5239 5242 5246 5249 5253 5256 5260 5264 5268 5272 5276 5280 5285 5289 5293 5298 5301 5304 5307 5310 5312 5314
5246 5243 5241 5239 5236 5233 5230 5228 5225 5223 5221 5218 5216 5215 5213 5213 5212 5211 5210 5208 5206 5204 5203 5202 5201 5200 5198 5197 5195 5193 5193 5192 5192 5191 5190 5191 5191 5191 5191 5190 5191 5191 5192 5192 5193 5193 5194 5196 5197 5198 5200 5201 5203 5205 5208 5210 5213 5215 5218 5221 5224 5227 5230 5233 5236 5239 5242 5246 5249 5253 5257 5261 5265 5269 5274 5278 5282 5286 5291 5294 5298 5301 5304 5306 5308 5311
5243 5241 5238 5236 5233 5230 5227 5225 5223 5221 5219 5217 5214 5213 5211 5210 5209 5208 5208 5206 5204 5203 5201 5200 5198 5197 5196 5194 5193 5192 5191 5190 5189 5189 5189 5189 5190 5190 5190 5190 5190 5190 5191 5191 5192 5192 5193 5194 5195 5197 5198 5200 5202 5203 5206 5208 5211 5213 5216 5218 5221 5223 5227 5230 5233 5236 5240 5243 5247 5251 5255 5259 5263 5267 5271 5275 5279 5283 5288 5291 5295 5298 5301 5303 5305 5308
5241 5238 5236 5233 5230 5227 5225 5223 5221 5219 5218 5215 5213 5211 5209 5208 5207 5206 5205 5204 5203 5201 5200 5198 5197 5195 5194 5193 5192 5191 5190 5189 5188 5188 5188 5188 5189 5189 5189 5189 5189 5189 5190 5191 5191 5191 5192 5193 5194 5195 5197 5198 5200 5202 5204 5206 5208 5211 5213 5216 5218 5221 5224 5228 5231 5234 5238 5241 5245 5249 5253 5257 5260 5264 5268 5272 5276 5280 5284 5288 5292 5294 5297 5300 5303 5305
5239 5236 5233 5230 5228 5225 5223 5221 5220 5218 5216 5214 5212 5210 5208 5207 5206 5204 5203 5202 5201 5199 5198 5197 5195 5194 5193 5192 5191 5190 5189 5188 5188 5187 5187 5188 5188 5188 5188 5188 5188 5189 5189 5190 5190 5190 5191 5192 5193 5194 5195 5197 5198 5200 5203 5204 5207 5209 5211 5213 5216 5219 5223 5226 5229 5232 5236 5239 5243 5247 5250 5254 5258 5262 5266 5270 5274 5278 5282 5285 5288 5291 5294 5297 5300 5303
5236 5233 5231 5228 5226 5223 5221 5220 5218 5216 5215 5213 5211 5209 5208 5206 5204 5203 5202 5201 5200 5198 5198 5196 5195 5194 5193 5192 5191 5190 5189 5188 5188 5187 5187 5187 5188 5188 5187 5187 5188 5188 5188 5189 5189 5190 5190 5191 5192 5193 5194 5196 5198 5199 5201 5203 5205 5207 5209 5212 5215 5218 5221 5224 5227 5231 5234 5238 5241 5245 5248 5252 5256 5259 5263 5268 5271 5275 5279 5282 5285 5288 5292 5295 5298 5300
5233 5231 5228 5226 5224 5222 5220 5218 5217 5215 5213 5212 5210 5208 5207 5205 5204 5203 5201 5200 5199 5198 5197 5196 5195 5193 5193 5192 5191 5190 5190 5189 5188 5187 5187 5187 5187 5187 5187 5187 5187 5187 5187 5188 5189 5189 5189 5190 5191 5193 5193 5195 5196 5198 5199 5201 5203 5205 5208 5211 5213 5216 5219 5223 5226 5229 5233 5236 5239 5243 5246 5250 5253 5257 5261 5265 5269 5273 5276 5279 5283 5286 5289 5292 5295 5298
5231 5229 5226 5224 5223 5221 5219 5217 5215 5214 5212 5211 5209 5208 5206 5205 5203 5202 5201 5199 5198 5197 5196 5195 5194 5193 5192 5191 5191 5190 5190 5189 5188 5187 5187 5186 5186 5186 5186 5186 5186 5186 5186 5187 5188 5188 5189 5189 5190 5191 5193 5194 5195 5196 5198 5200 5202 5204 5207 5209 5212 5215 5218 5221 5224 5228 5231 5234 5237 5241 5244 5248 5251 5255 5259 5263 5266 5270 5273 5277 5280 5283 5287 5290 5293 5295
5229 5227 5225 5223 5221 5219 5218 5216 5214 5213 5212 5210 5209 5208 5206 5204 5203 5201 5200 5199 5198 5197 5196 5195 5194 5193 5192 5191 5190 5190 5189 5188 5188 5187 5187 5186 5186 5186 5186 5186 5185 5185 5186 5186 5187 5187 5188 5188 5189 5190 5192 5193 5194 5195 5197 5198 5201 5203 5206 5208 5211 5214 5217 5220 5223 5226 5229 5232 5235 5239 5242 5246 5249 5253 5257 5260 5264 5268 5271 5274 5278 5281 5284 5288 5290 5293
5227 5225 5224 5222 5220 5219 5217 5215 5214 5213 5211 5209 5208 5207 5205 5203 5202 5201 5200 5198 5198 5197 5196 5194 5193 5193 5192 5191 5190 5189 5188 5188 5188 5187 5186 5186 5186 5186 5185 5185 5185 5185 5185 5185 5186 5186 5187 5188 5188 5189 5191 5192 5193 5194 5196 5198 5200 5202 5205 5208 5210 5213 5216 5218 5221 5224 5228 5231 5234 5237 5240 5244 5247 5251 5254 5258 5262 5265 5269 5272 5276 5279 5282 5285 5288 5290
5227 5225 5223 5222 5220 5218 5217 5215 5213 5212 5211 5209 5208 5206 5204 5203 5202 5200 5199 5198 5197 5196 5195 5194 5193 5192 5191 5190 5189 5189 5188 5188 5187 5187 5186 5186 5185 5185 5185 5184 5184 5184 5184 5185 5185 5186 5187 5187 5188 5189 5190 5191 5192 5193 5195 5197 5199 5202 5204 5207 5209 5212 5214 5217 5220 5223 5226 5229 5232 5235 5238 5242 5245 5249 5253 5257 5260 5263 5267 5270 5273 5277 5280 5283 5285 5288
5226 5224 5223 5221 5219 5218 5217 5215 5213 5212 5210 5208 5207 5205 5204 5202 5201 5200 5199 5198 5196 5195 5194 5193 5193 5192 5191 5190 5189 5188 5187 5187 5187 5186 5186 5185 5185 5185 5185 5184 5183 5184 5184 5184 5185 5186 5186 5187 5188 5189 5190 5191 5192 5193 5194 5197 5199 5201 5203 5206 5208 5211 5213 5216 5219 5222 5225 5228 5231 5234 5237 5241 5244 5248 5251 5255 5258 5262 5265 5268 5272 5274 5278 5280 5283 5286
5226 5224 5222 5221 5219 5217 5216 5214 5213 5211 5209 5208 5207 5205 5203 5202 5201 5199 5198 5197 5196 5195 5193 5193 5192 5191 5190 5189 5188 5187 5187 5186 5186 5185 5185 5185 5185 5185 5184 5183 5183 5183 5184 5184 5185 5186 5186 5187 5188 5189 5190 5191 5192 5193 5194 5196 5198 5201 5203 5205 5208 5210 5213 5215 5218 5221 5224 5227 5230 5233 5236 5239 5243 5247 5250 5253 5257 5260 5263 5267 5270 5273 5276 5279 5282 5284
5225 5223 5222 5220 5218 5217 5215 5213 5212 5210 5209 5207 5206 5204 5203 5202 5200 5199 5198 5197 5195 5194 5193 5192 5191 5191 5190 5189 5188 5187 5186 5185 5185 5185 5185 5185 5185 5184 5184 5183 5183 5184 5184 5185 5185 5186 5187 5188 5188 5189 5190 5191 5192 5193 5194 5196 5198 5200 5202 5204 5207 5209 5212 5215 5217 5220 5223 5226 5229 5232 5235 5238 5242 5245 5249 5252 5255 5259 5262 5265 5268 5271 5274 5277 5280 5283
5225 5223 5221 5219 5218 5216 5214 5213 5211 5209 5208 5206 5205 5203 5202 5201 5200 5199 5198 5196 5195 5193 5193 5192 5191 5190 5189 5188 5188 5187 5186 5185 5185 5185 5185 5185 5184 5184 5184 5184 5184 5184 5185 5185 5186 5187 5187 5188 5188 5189 5190 5191 5192 5193 5195 5196 5198 5200 5202 5204 5207 5209 5212 5214 5217 5219 5222 5225 5228 5231 5234 5237 5241 5244 5248 5251 5254 5257 5260 5263 5267 5270 5273 5275 5278 5281
5224 5223 5221 5218 5217 5215 5213 5211 5210 5208 5207 5205 5204 5203 5202 5200 5199 5198 5197 5196 5194 5193 5192 5191 5191 5190 5189 5188 5188 5187 5186 5186 5186 5185 5185 5185 5185 5185 5185 5185 5185 5185 5186 5186 5187 5187 5188 5188 5189 5189 5190 5191 5192 5193 5195 5197 5198 5200 5202 5204 5206 5208 5211 5213 5216 5218 5221 5224 5227 5230 5233 5236 5240 5243 5246 5250 5253 5256 5259 5262 5265 5268 5271 5274 5276 5279
5223 5221 5219 5217 5215 5213 5212 5210 5208 5207 5206 5204 5203 5202 5201 5200 5199 5198 5197 5196 5194 5193 5192 5191 5191 5190 5189 5188 5188 5188 5187 5186 5186 5186 5186 5186 5186 5185 5185 5186 5186 5186 5187 5187 5187 5187 5188 5188 5189 5190 5191 5192 5193 5194 5196 5197 5199 5201 5202 5204 5206 5208 5211 5213 5215 5218 5221 5223 5226 5229 5232 5235 5239 5242 5245 5248 5252 5255 5258 5261 5264 5267 5269 5272 5275 5277
5222 5219 5218 5216 5214 5212 5211 5209 5208 5206 5205 5204 5203 5202 5201 5199 5198 5198 5197 5195 5194 5193 5193 5192 5191 5190 5189 5189 5188 5188 5188 5187 5186 5186 5186 5186 5186 5186 5186 5187 5187 5187 5187 5187 5188 5188 5188 5189 5190 5191 5191 5192 5193 5195 5196 5198 5199 5201 5203 5204 5206 5208 5210 5213 5215 5218 5220 5223 5225 5228 5232 5235 5238 5241 5244 5247 5250 5254 5257 5259 5263 5265 5268 5270 5273 5276
5220 5218 5216 5214 5213 5211 5209 5208 5207 5206 5205 5203 5202 5201 5200 5199 5198 5197 5196 5195 5194 5193 5193 5192 5191 5191 5190 5189 5189 5188 5188 5187 5187 5187 5187 5187 5187 5187 5187 5187 5187 5187 5188 5188 5188 5188 5189 5190 5190 5191 5192 5193 5194 5195 5197 5198 5200 5201 5203 5205 5207 5208 5210 5212 5215 5218 5220 5222 5225 5228 5231 5234 5237 5240 5243 5247 5250 5253 5256 5258 5261 5264 5266 5269 5272 5274
5218 5216 5214 5213 5211 5210 5208 5207 5206 5205 5204 5203 5202 5201 5200 5199 5198 5197 5196 5195 5194 5194 5193 5192 5192 5191 5190 5190 5189 5189 5188 5188 5188 5187 5187 5187 5187 5188 5188 5188 5188 5188 5188 5189 5189 5189 5190 5191 5191 5192 5193 5194 5195 5196 5198 5199 5200 5202 5203 5205 5207 5208 5210 5212 5215 5217 5219 5222 5225 5228 5230 5233 5237 5240 5243 5246 5249 5252 5255 5258 5260 5263 5265 5268 5270 5273
5217 5215 5213 5212 5210 5209 5208 5207 5205 5204 5203 5203 5202 5201 5200 5199 5198 5198 5197 5196 5195 5194 5193 5193 5192 5192 5191 5190 5190 5189 5189 5189 5188 5188 5188 5188 5188 5188 5188 5188 5188 5189 5189 5189 5190 5190 5191 5191 5192 5193 5194 5195 5196 5197 5198 5199 5201 5203 5204 5206 5207 5209 5210 5213 5215 5217 5219 5222 5224 5227 5230 5233 5236 5239 5242 5245 5248 5251 5254 5257 5259 5262 5264 5267 5269 5272
5216 5214 5213 5211 5209 5208 5207 5206 5205 5204 5203 5203 5202 5201 5200 5199 5199 5198 5197 5196 5195 5195 5194 5194 5193 5193 5192 5191 5191 5190 5190 5189 5189 5189 5189 5189 5189 5189 5189 5189 5189 5189 5190 5190 5191 5191 5192 5192 5193 5194 5195 5195 5197 5198 5199 5200 5202 5203 5204 5206 5207 5209 5211 5213 5215 5218 5219 5222 5224 5227 5230 5233 5236 5239 5242 5245 5248 5250 5253 5256 5258 5261 5263 5266 5268 5271
5216 5214 5212 5211 5210 5208 5208 5207 5206 5205 5204 5203 5202 5201 5201 5200 5199 5198 5198 5197 5197 5196 5195 5195 5194 5194 5193 5193 5192 5191 5191 5191 5190 5190 5190 5190 5190 5190 5190 5190 5190 5190 5191 5191 5192 5192 5193 5193 5194 5195 5196 5196 5197 5198 5200 5201 5202 5203 5205 5207 5208 5209 5211 5213 5216 5218 5220 5222 5224 5227 5230 5233 5236 5238 5242 5244 5247 5250 5253 5255 5258 5260 5263 5265 5268 5270
5216 5214 5213 5212 5210 5209 5208 5207 5206 5205 5205 5204 5203 5202 5202 5201 5200 5200 5199 5198 5198 5198 5197 5196 5196 5195 5194 5194 5193 5193 5193 5192 5192 5191 5191 5191 5191 5191 5191 5191 5191 5192 5192 5192 5193 5193 5193 5194 5195 5196 5197 5198 5198 5199 5200 5202 5203 5204 5206 5207 5208 5210 5212 5214 5216 5218 5220 5222 5224 5227 5230 5233 5236 5238 5241 5244 5247 5249 5252 5255 5257 5260 5262 5264 5267 5269
5216 5215 5213 5212 5211 5210 5209 5208 5207 5207 5206 5205 5204 5203 5203 5203 5202 5201 5201 5200 5200 5199 5199 5198 5197 5197 5196 5195 5195 5194 5194 5193 5193 5193 5193 5192 5192 5192 5192 5193 5193 5193 5193 5193 5194 5194 5195 5195 5196 5197 5198 5198 5199 5200 5201 5203 5204 5205 5206 5208 5209 5211 5213 5214 5216 5218 5220 5223 5225 5228 5230 5233 5236 5239 5241 5244 5247 5249 5252 5254 5257 5259 5262 5264 5266 5268
5217 5216 5214 5213 5212 5211 5210 5209 5208 5208 5207 5206 5206 5205 5204 5204 5203 5203 5202 5202 5202 5201 5200 5200 5199 5198 5198 5197 5197 5196 5195 5195 5195 5194 5194 5194 5194 5194 5194 5194 5194 5194 5194 5195 5195 5195 5196 5197 5197 5198 5198 5199 5200 5201 5202 5203 5204 5206 5207 5209 5210 5212 5213 5215 5217 5218 5221 5223 5226 5228 5231 5233 5236 5239 5242 5244 5247 5249 5251 5254 5256 5259 5261 5264 5266 5268
5218 5217 5216 5214 5213 5212 5211 5210 5210 5209 5208 5208 5207 5206 5206 5205 5204 5204 5204 5203 5203 5202 5202 5201 5200 5200 5199 5199 5198 5198 5197 5197 5196 5196 5196 5196 5196 5195 5195 5196 5196 5196 5196 5196 5197 5197 5198 5198 5199 5199 5200 5201 5202 5203 5203 5204 5205 5207 5208 5209 5211 5213 5214 5215 5217 5219 5222 5224 5226 5228 5231 5234 5237 5239 5242 5244 5247 5249 5251 5253 5256 5258 5261 5263 5266 5268